AVA5325 SKCL-SKPS

Flight info

Callsign AVA5325
Flight time 0h 32m
Altitude 26000
Route CLO1D DAKOP DCT PAKEX PAKEX1A
Aircraft A320/M-SDE3FGHIRWY/LB1

Departure

Time 2026-04-27 00:29
Airport Alfonso Bonilla Aragon International Airport (SKCL)

Arrival

Time 2026-04-27 01:01
Airport Antonio Nariño Airport (SKPS)
Time Latitude Longitude Altitude Speed Heading
2026-04-26 23:49 3.53726 -76.38633 3163 ft 0 kts 191°
2026-04-27 00:20 3.53727 -76.38633 3108 ft 2 kts 191°
2026-04-27 00:20 3.53744 -76.38629 3163 ft 2 kts 191°
2026-04-27 00:20 3.53761 -76.38626 3164 ft 2 kts 191°
2026-04-27 00:20 3.53778 -76.38622 3163 ft 2 kts 191°
2026-04-27 00:21 3.53795 -76.38619 3166 ft 2 kts 179°
2026-04-27 00:21 3.53812 -76.38619 3166 ft 2 kts 169°
2026-04-27 00:21 3.53819 -76.38620 3166 ft 0 kts 139°
2026-04-27 00:23 3.53769 -76.38573 3163 ft 17 kts 136°
2026-04-27 00:23 3.53683 -76.38505 3163 ft 14 kts 143°
2026-04-27 00:23 3.53603 -76.38460 3164 ft 12 kts 173°
2026-04-27 00:23 3.53523 -76.38469 3162 ft 11 kts 189°
2026-04-27 00:24 3.53451 -76.38482 3162 ft 10 kts 189°
2026-04-27 00:24 3.53389 -76.38492 3161 ft 8 kts 189°
2026-04-27 00:24 3.53334 -76.38501 3161 ft 11 kts 189°
2026-04-27 00:24 3.53214 -76.38522 3161 ft 18 kts 190°
2026-04-27 00:25 3.53084 -76.38545 3162 ft 22 kts 189°
2026-04-27 00:25 3.52997 -76.38517 3161 ft 5 kts 101°
2026-04-27 00:25 3.52996 -76.38512 3160 ft 0 kts 101°
2026-04-27 00:26 3.52995 -76.38507 3160 ft 5 kts 101°
2026-04-27 00:26 3.52989 -76.38466 3162 ft 6 kts 94°
2026-04-27 00:26 3.53012 -76.38425 3159 ft 9 kts 41°
2026-04-27 00:26 3.53071 -76.38383 3157 ft 12 kts 18°
2026-04-27 00:27 3.53084 -76.38380 3157 ft 0 kts 10°
2026-04-27 00:28 3.53091 -76.38379 3157 ft 6 kts 10°
2026-04-27 00:28 3.53381 -76.38330 3161 ft 84 kts
2026-04-27 00:28 3.54215 -76.38185 3169 ft 155 kts
2026-04-27 00:29 3.55410 -76.37992 3571 ft 185 kts
2026-04-27 00:29 3.56683 -76.37768 4526 ft 184 kts
2026-04-27 00:29 3.57944 -76.37539 5018 ft 190 kts 10°
2026-04-27 00:29 3.59321 -76.37287 5215 ft 212 kts 10°
2026-04-27 00:30 3.60849 -76.37012 5416 ft 234 kts
2026-04-27 00:30 3.62495 -76.36718 5970 ft 243 kts 10°
2026-04-27 00:30 3.64169 -76.36419 6700 ft 246 kts
2026-04-27 00:30 3.65825 -76.35997 7391 ft 249 kts 25°
2026-04-27 00:31 3.67230 -76.34980 8087 ft 253 kts 49°
2026-04-27 00:31 3.68112 -76.33454 8794 ft 257 kts 73°
2026-04-27 00:31 3.68289 -76.31666 9502 ft 260 kts 98°
2026-04-27 00:31 3.67705 -76.29955 10180 ft 263 kts 123°
2026-04-27 00:32 3.66447 -76.28628 10827 ft 265 kts 148°
2026-04-27 00:32 3.64732 -76.27956 11460 ft 268 kts 173°
2026-04-27 00:32 3.62883 -76.28089 12092 ft 270 kts 198°
2026-04-27 00:32 3.61184 -76.28912 12729 ft 273 kts 209°
2026-04-27 00:33 3.59519 -76.29843 13379 ft 276 kts 209°
2026-04-27 00:33 3.57831 -76.30788 14001 ft 279 kts 209°
2026-04-27 00:33 3.56132 -76.31737 14570 ft 281 kts 209°
2026-04-27 00:33 3.54418 -76.32694 15149 ft 283 kts 209°
2026-04-27 00:34 3.52710 -76.33647 15714 ft 285 kts 209°
2026-04-27 00:34 3.50964 -76.34620 16295 ft 288 kts 209°
2026-04-27 00:34 3.49206 -76.35595 16857 ft 290 kts 209°
2026-04-27 00:34 3.47429 -76.36581 17379 ft 293 kts 209°
2026-04-27 00:35 3.45646 -76.37570 17963 ft 295 kts 209°
2026-04-27 00:35 3.43846 -76.38569 18500 ft 297 kts 209°
2026-04-27 00:35 3.42021 -76.39582 18966 ft 300 kts 209°
2026-04-27 00:35 3.40182 -76.40588 19431 ft 302 kts 207°
2026-04-27 00:36 3.38265 -76.41538 19660 ft 316 kts 205°
2026-04-27 00:36 3.36218 -76.42493 19791 ft 332 kts 204°
2026-04-27 00:36 3.34067 -76.43470 19897 ft 347 kts 204°
2026-04-27 00:36 3.31817 -76.44485 20019 ft 362 kts 204°
2026-04-27 00:37 3.29475 -76.45546 20143 ft 376 kts 204°
2026-04-27 00:37 3.27055 -76.46651 20263 ft 389 kts 204°
2026-04-27 00:37 3.24565 -76.47795 20544 ft 396 kts 204°
2026-04-27 00:37 3.22047 -76.48955 20916 ft 400 kts 204°
2026-04-27 00:38 3.19505 -76.50127 21326 ft 403 kts 204°
2026-04-27 00:38 3.16952 -76.51306 21721 ft 406 kts 204°
2026-04-27 00:38 3.14369 -76.52499 22107 ft 410 kts 204°
2026-04-27 00:38 3.11810 -76.53683 22503 ft 412 kts 204°
2026-04-27 00:39 3.09203 -76.54891 22904 ft 415 kts 205°
2026-04-27 00:39 3.06538 -76.56125 23307 ft 418 kts 204°
2026-04-27 00:39 3.03945 -76.57366 23660 ft 420 kts 208°
2026-04-27 00:39 3.01490 -76.58965 23918 ft 423 kts 217°
2026-04-27 00:40 2.99146 -76.60768 23996 ft 423 kts 217°
2026-04-27 00:40 2.96824 -76.62565 24036 ft 423 kts 217°
2026-04-27 00:40 2.94506 -76.64361 24035 ft 422 kts 217°
2026-04-27 00:40 2.92183 -76.66159 24029 ft 422 kts 217°
2026-04-27 00:41 2.89863 -76.67950 24026 ft 421 kts 217°
2026-04-27 00:41 2.87543 -76.69737 24027 ft 420 kts 217°
2026-04-27 00:41 2.85226 -76.71524 24027 ft 420 kts 217°
2026-04-27 00:41 2.82916 -76.73306 24026 ft 420 kts 217°
2026-04-27 00:42 2.80595 -76.75095 24041 ft 420 kts 217°
2026-04-27 00:42 2.78279 -76.76882 24040 ft 420 kts 217°
2026-04-27 00:42 2.75966 -76.78667 24043 ft 420 kts 217°
2026-04-27 00:42 2.73660 -76.80446 24036 ft 420 kts 217°
2026-04-27 00:43 2.71339 -76.82235 24039 ft 420 kts 217°
2026-04-27 00:43 2.69023 -76.84017 24042 ft 420 kts 217°
2026-04-27 00:43 2.66702 -76.85803 24053 ft 420 kts 217°
2026-04-27 00:43 2.64389 -76.87587 24040 ft 421 kts 217°
2026-04-27 00:44 2.62075 -76.89375 24041 ft 421 kts 217°
2026-04-27 00:44 2.59757 -76.91165 24038 ft 421 kts 217°
2026-04-27 00:44 2.57439 -76.92953 24040 ft 421 kts 217°
2026-04-27 00:44 2.55117 -76.94742 24028 ft 421 kts 216°
2026-04-27 00:45 2.52790 -76.96533 24033 ft 421 kts 217°
2026-04-27 00:45 2.50500 -76.98296 24033 ft 421 kts 217°
2026-04-27 00:45 2.48151 -77.00106 24032 ft 421 kts 217°
2026-04-27 00:45 2.45833 -77.01892 24033 ft 421 kts 217°
2026-04-27 00:46 2.43538 -77.03661 24031 ft 421 kts 217°
2026-04-27 00:46 2.41223 -77.05447 24032 ft 421 kts 217°
2026-04-27 00:46 2.38904 -77.07238 24031 ft 421 kts 216°
2026-04-27 00:46 2.36592 -77.09019 24020 ft 421 kts 217°
2026-04-27 00:47 2.34261 -77.10812 24018 ft 421 kts 216°
2026-04-27 00:47 2.31941 -77.12600 24018 ft 421 kts 217°
2026-04-27 00:47 2.29609 -77.14367 24018 ft 420 kts 212°
2026-04-27 00:47 2.27005 -77.15653 24017 ft 417 kts 196°
2026-04-27 00:48 2.24201 -77.16183 23689 ft 408 kts 181°
2026-04-27 00:48 2.21385 -77.16152 23147 ft 404 kts 178°
2026-04-27 00:48 2.18583 -77.16079 22606 ft 401 kts 178°
2026-04-27 00:48 2.15809 -77.16001 22083 ft 398 kts 178°
2026-04-27 00:49 2.13045 -77.15924 21571 ft 395 kts 178°
2026-04-27 00:49 2.10313 -77.15856 21094 ft 392 kts 178°
2026-04-27 00:49 2.07638 -77.15792 20933 ft 376 kts 178°
2026-04-27 00:49 2.05075 -77.15733 20795 ft 360 kts 178°
2026-04-27 00:50 2.02605 -77.15680 20397 ft 349 kts 178°
2026-04-27 00:50 1.97898 -77.15581 19610 ft 331 kts 178°
2026-04-27 00:50 1.95601 -77.15529 19225 ft 328 kts 178°
2026-04-27 00:51 1.93327 -77.15474 18850 ft 326 kts 178°
2026-04-27 00:51 1.91048 -77.15419 18478 ft 328 kts 179°
2026-04-27 00:51 1.88765 -77.15366 18069 ft 328 kts 179°
2026-04-27 00:51 1.86480 -77.15312 17642 ft 329 kts 179°
2026-04-27 00:52 1.84182 -77.15258 17194 ft 330 kts 179°
2026-04-27 00:52 1.82659 -77.15222 16865 ft 332 kts 179°
2026-04-27 00:52 1.79553 -77.15270 16211 ft 335 kts 189°
2026-04-27 00:52 1.77339 -77.15970 15735 ft 332 kts 207°
2026-04-27 00:53 1.75332 -77.17045 15264 ft 324 kts 208°
2026-04-27 00:53 1.73384 -77.18092 14822 ft 318 kts 208°
2026-04-27 00:53 1.71427 -77.19138 14346 ft 312 kts 208°
2026-04-27 00:53 1.69562 -77.20134 14060 ft 301 kts 208°
2026-04-27 00:54 1.67744 -77.21105 14006 ft 293 kts 208°
2026-04-27 00:54 1.65951 -77.22063 14014 ft 292 kts 208°
2026-04-27 00:54 1.64151 -77.23024 14004 ft 293 kts 208°
2026-04-27 00:54 1.62360 -77.23983 14022 ft 292 kts 208°
2026-04-27 00:55 1.60567 -77.24944 14021 ft 292 kts 208°
2026-04-27 00:55 1.58775 -77.25902 13996 ft 292 kts 208°
2026-04-27 00:55 1.56983 -77.26859 13853 ft 292 kts 208°
2026-04-27 00:55 1.55192 -77.27816 13598 ft 291 kts 208°
2026-04-27 00:56 1.53993 -77.28458 13414 ft 290 kts 208°
2026-04-27 00:56 1.51631 -77.29706 13035 ft 288 kts 207°
2026-04-27 00:56 1.50456 -77.30302 13015 ft 280 kts 206°
2026-04-27 00:56 1.48760 -77.31150 13042 ft 266 kts 206°
2026-04-27 00:57 1.47146 -77.31952 13044 ft 253 kts 206°
2026-04-27 00:57 1.45581 -77.32730 13047 ft 249 kts 206°
2026-04-27 00:57 1.44038 -77.33497 13057 ft 240 kts 206°
2026-04-27 00:57 1.42642 -77.34193 13045 ft 210 kts 206°
2026-04-27 00:58 1.41392 -77.34817 13069 ft 190 kts 206°
2026-04-27 00:58 1.40247 -77.35390 13038 ft 180 kts 206°
2026-04-27 00:58 1.39146 -77.35943 12766 ft 175 kts 207°
2026-04-27 00:58 1.38030 -77.36425 12491 ft 174 kts 194°
2026-04-27 00:59 1.36829 -77.36520 12143 ft 174 kts 173°
2026-04-27 00:59 1.35672 -77.36180 11714 ft 175 kts 152°
2026-04-27 00:59 1.34720 -77.35450 11293 ft 176 kts 131°
2026-04-27 00:59 1.34080 -77.34410 10827 ft 178 kts 110°
2026-04-27 01:00 1.33852 -77.33200 10369 ft 179 kts 89°
2026-04-27 01:00 1.34070 -77.31964 9689 ft 188 kts 69°
2026-04-27 01:00 1.34733 -77.30788 8629 ft 204 kts 49°
2026-04-27 01:00 1.35971 -77.29980 7369 ft 225 kts 17°
2026-04-27 01:01 1.37507 -77.29656 6437 ft 215 kts 13°
2026-04-27 01:01 1.38879 -77.29295 5976 ft 191 kts 14°
2026-04-27 01:01 1.39937 -77.29019 5887 ft 93 kts 15°
2026-04-27 01:01 1.40088 -77.28979 5884 ft 0 kts 13°